Wind_Speed
18 17 16 14 12 13 15 17 18 20 20 19 18 17 16 14 12 10 9 8 8 7 7 8 9 10 11 12 13 13 13 13 13 13 14 14 15 16 16 17 18 18 18 19 20 22 23 25 25 26 28 29 30 32 33 34 34 35 36 37 37 39 40 40 42 43 42 43 44 44 43 43 42 42 41 41 40 40 41 42 41 41 41 42 41
18 16 14 12 12 14 16 17 19 20 20 19 18 16 14 12 11 9 8 8 8 7 8 9 10 11 11 12 12 12 12 12 12 13 14 15 16 17 17 17 17 17 18 19 20 22 23 25 26 27 29 30 31 32 32 33 34 35 36 37 37 39 40 41 42 44 44 44 45 46 46 46 46 45 44 44 43 41 41 42 42 42 41 41 41
18 16 15 13 14 16 17 17 18 19 18 17 16 15 13 11 9 8 8 8 8 8 9 9 10 10 11 11 11 11 11 12 13 14 15 16 17 17 16 16 17 18 19 20 20 22 24 25 26 28 29 30 30 31 32 33 34 35 36 38 39 40 41 42 43 45 46 46 46 47 47 47 47 47 46 45 44 43 41 40 41 41 40 39 40
19 18 17 17 18 19 19 18 17 17 16 16 15 13 12 10 8 7 8 8 9 9 9 10 10 10 10 10 10 11 11 12 13 14 15 16 16 17 16 16 17 18 20 21 21 22 24 26 27 28 28 29 29 30 31 33 34 36 37 38 40 40 41 42 43 44 46 46 46 47 48 48 47 46 46 46 44 42 40 38 37 37 38 37 37
21 22 21 20 20 20 20 18 17 16 15 15 14 13 12 10 8 8 9 9 10 10 9 9 9 9 10 10 10 10 11 13 14 15 16 16 16 17 17 16 17 18 20 22 22 23 24 25 26 27 28 29 30 31 32 33 35 36 38 39 40 40 41 41 42 43 44 46 46 46 47 47 47 45 44 45 45 42 40 37 35 36 37 37 36
23 23 21 20 20 20 19 17 16 15 14 14 14 13 12 10 9 9 9 10 10 10 9 9 9 9 9 10 10 11 12 13 14 15 16 16 16 16 17 17 17 18 20 22 23 23 24 25 25 27 28 29 30 32 33 34 35 37 38 39 39 40 40 41 42 43 44 45 46 47 47 47 47 46 45 45 46 46 44 42 39 39 40 40 38
23 22 20 20 21 20 19 17 15 14 13 14 14 13 12 11 10 10 10 10 11 10 9 9 9 9 9 9 10 11 13 14 14 15 15 15 15 16 17 17 18 18 20 22 23 24 25 26 26 27 28 29 31 32 34 35 36 37 38 39 40 41 41 42 43 44 44 45 46 48 48 49 49 49 48 48 48 47 48 49 48 45 42 41 39
24 22 19 20 21 20 17 17 16 14 13 14 14 14 13 12 10 10 10 11 11 10 9 9 9 9 9 9 11 12 13 14 14 15 15 15 15 16 17 18 18 19 20 22 23 24 25 26 27 27 28 29 31 32 34 36 37 37 38 39 40 41 42 43 44 44 45 45 47 48 50 50 51 51 50 50 50 49 49 51 52 49 43 39 36
23 20 18 19 20 19 16 16 15 14 14 14 15 15 14 12 10 10 11 12 11 10 9 9 8 8 9 10 11 12 13 13 14 14 14 14 15 15 17 18 18 19 20 22 23 24 25 26 27 28 29 30 31 32 34 35 36 37 38 39 41 42 43 44 44 45 46 46 48 49 51 52 52 52 52 51 51 51 50 50 49 47 43 38 34
20 19 19 19 19 17 15 15 16 16 15 15 15 15 14 11 10 11 12 12 11 10 9 9 8 8 9 10 11 12 12 13 13 13 13 14 14 15 16 17 19 19 20 22 23 24 25 26 27 28 29 30 31 32 33 34 35 37 38 39 41 42 43 44 44 45 46 47 48 50 52 52 52 52 51 51 51 51 50 50 49 47 45 40 34
19 21 21 19 18 17 17 17 18 17 17 16 16 15 14 12 11 12 13 12 11 10 9 8 8 8 9 10 11 11 12 12 12 12 13 13 14 15 16 17 18 19 20 21 22 23 24 26 27 28 29 30 30 31 32 33 35 36 37 38 39 40 42 43 44 45 45 47 48 49 51 52 52 51 50 51 51 52 53 54 55 54 51 48 41
19 20 19 19 19 19 18 18 18 18 17 16 16 15 14 12 12 13 13 12 11 10 9 8 8 8 9 10 10 11 10 11 11 11 12 13 14 15 16 17 18 19 20 21 22 23 24 25 26 28 29 30 31 31 32 33 35 35 36 36 36 38 39 41 42 43 45 46 48 49 50 51 52 50 50 52 54 56 57 58 59 60 58 56 51
20 19 19 20 19 17 16 17 18 18 17 16 16 16 14 13 13 13 13 12 12 11 9 8 8 8 9 9 9 9 9 10 10 11 11 12 13 15 16 17 17 18 20 21 22 23 24 25 26 28 29 30 31 32 33 34 35 35 35 35 35 36 37 38 39 40 42 44 46 48 48 49 51 50 49 51 55 58 60 60 61 62 60 59 58
19 18 19 19 17 15 15 17 18 18 17 16 16 16 14 13 13 14 13 13 12 10 9 8 8 8 8 8 8 8 9 9 9 10 11 12 13 14 15 16 17 18 19 20 22 23 24 25 27 28 29 30 31 33 34 34 35 35 35 35 35 36 37 38 38 39 40 42 44 46 47 46 48 48 47 50 53 56 59 61 62 61 59 57 55
19 20 20 18 15 15 16 17 18 18 17 16 16 15 14 14 14 14 14 13 11 10 9 8 7 7 8 8 8 8 8 8 9 10 11 12 13 14 15 16 16 17 19 20 21 23 24 25 26 27 29 30 32 33 34 35 35 35 35 35 35 35 37 38 39 39 40 42 43 45 46 46 45 46 47 48 51 54 56 58 58 56 54 51 49
20 21 20 16 14 15 16 17 17 17 17 16 16 15 15 14 14 14 14 12 11 10 8 7 7 7 7 7 7 7 7 7 8 9 10 11 12 13 14 15 16 17 18 20 22 23 24 25 26 27 29 30 32 33 34 34 35 36 36 35 35 35 36 38 39 40 40 41 42 44 45 45 44 44 45 47 50 54 55 54 53 51 49 47 44
22 21 17 14 15 16 17 17 17 17 17 16 16 15 15 15 15 14 13 12 11 9 7 7 7 6 6 6 6 6 6 7 8 9 10 10 11 12 13 14 16 17 18 20 22 23 23 25 26 27 29 30 32 32 33 34 35 36 36 36 36 36 37 38 39 40 40 40 41 43 45 45 43 42 43 45 48 51 53 52 50 48 47 45 41
22 18 14 15 17 17 18 17 17 17 16 16 16 16 16 15 15 14 13 12 10 8 7 7 6 6 5 5 5 5 5 6 7 8 9 9 10 11 12 14 15 17 19 20 21 22 23 25 26 28 29 30 31 32 33 34 35 36 37 38 38 38 38 40 41 42 42 42 42 44 45 44 42 41 41 44 47 47 47 47 47 47 46 42 38
19 15 16 17 18 18 18 18 18 17 16 16 16 16 16 16 15 14 13 11 9 7 7 6 5 5 5 5 5 4 5 5 6 6 7 8 9 10 12 13 15 17 19 20 21 22 24 25 26 27 28 29 30 31 33 34 35 36 38 39 40 40 40 41 43 43 44 44 44 45 46 45 42 40 41 43 45 44 43 42 43 45 44 39 35
17 17 17 17 17 17 18 18 17 17 16 17 17 17 17 16 15 14 12 10 8 7 6 5 4 4 5 4 4 3 4 4 4 5 6 7 8 9 11 12 14 16 17 19 20 22 23 24 25 26 27 28 29 31 32 34 35 36 38 39 40 41 42 42 43 43 44 44 45 46 48 46 42 40 42 44 45 44 40 38 39 42 42 38 33
17 17 17 16 17 18 18 18 17 17 17 18 18 18 18 16 15 13 11 9 8 7 5 4 4 5 4 4 3 3 3 3 3 4 5 6 7 9 10 12 14 15 16 18 20 20 21 22 24 25 26 28 30 31 32 33 35 36 38 39 40 41 41 41 42 42 43 44 46 47 49 48 44 41 44 46 47 45 40 37 37 40 40 37 31
16 16 16 17 17 18 19 18 18 18 18 19 19 19 18 17 15 13 11 9 8 6 4 4 5 5 4 3 3 3 2 2 2 4 4 6 7 8 11 13 14 14 16 18 19 20 20 22 23 25 27 28 30 32 33 34 35 37 38 39 39 39 40 40 41 42 42 44 46 48 51 51 47 45 47 49 48 45 39 35 35 36 36 34 30
15 15 16 17 18 19 19 19 19 19 19 20 20 19 17 16 14 12 11 9 7 6 5 5 5 4 4 4 3 2 1 1 2 3 4 5 7 9 12 13 13 14 16 17 18 20 20 22 24 25 27 28 30 32 33 34 36 37 38 39 39 39 40 40 40 41 42 44 46 49 51 53 50 48 49 50 49 46 39 33 32 32 31 31 29
14 15 16 17 19 20 19 19 19 19 20 20 20 19 17 16 14 12 11 9 7 6 5 4 4 5 5 4 3 2 1 2 3 4 5 6 8 11 12 12 12 14 16 17 18 19 21 22 24 25 26 28 30 31 32 34 35 37 38 39 39 40 40 41 41 42 43 44 47 49 51 53 52 49 49 50 50 47 40 32 27 26 26 27 26
13 14 15 17 20 20 19 19 19 20 21 21 20 18 17 16 14 13 11 9 8 6 4 5 7 8 7 5 3 2 2 3 4 4 5 7 9 11 12 11 12 14 16 17 18 19 21 22 24 25 26 27 29 30 31 33 35 36 37 39 40 41 41 42 42 43 44 45 47 48 50 52 52 49 47 48 50 49 44 35 27 21 18 19 21
14 14 15 18 20 20 20 20 20 21 22 21 20 19 17 16 14 13 11 9 7 6 6 8 10 9 7 5 4 3 3 4 4 5 6 8 10 11 10 11 12 13 15 17 18 19 21 22 23 24 25 27 28 30 31 32 34 35 36 38 40 41 42 43 43 44 44 45 46 47 49 50 51 49 47 47 50 51 48 42 33 24 16 13 15
14 15 17 19 20 20 21 20 21 22 23 22 21 20 19 17 15 13 11 9 7 7 9 10 11 9 7 6 5 4 4 4 4 5 7 9 10 9 9 11 12 14 15 16 18 19 20 21 22 23 25 26 27 28 30 31 33 34 36 37 39 41 42 43 43 43 44 45 45 46 47 48 50 51 49 48 50 51 51 47 41 32 24 17 14
14 15 18 20 21 21 21 21 22 23 23 22 21 20 19 17 15 13 10 9 9 10 11 11 11 9 8 7 6 5 5 5 4 6 8 8 8 8 9 11 12 14 15 16 17 19 20 21 22 22 23 25 25 27 28 30 32 33 35 37 38 40 41 42 43 43 44 45 45 45 46 47 50 52 51 50 50 51 52 50 45 39 33 26 21
15 18 21 21 21 21 21 22 23 24 23 22 21 20 19 16 14 12 11 10 11 12 12 11 11 10 8 8 7 6 5 4 5 6 7 6 6 8 9 11 12 13 14 15 17 18 19 21 21 22 23 24 25 26 28 29 31 33 34 36 38 39 41 42 43 44 45 45 46 46 47 48 49 51 52 51 50 50 51 51 49 44 39 35 31
17 21 23 22 22 22 22 23 24 25 24 23 22 21 19 16 14 13 13 12 13 13 13 12 11 10 9 8 7 6 5 4 5 5 4 5 6 8 9 11 12 13 14 15 16 18 19 21 21 22 23 24 26 27 28 29 31 32 33 35 37 39 40 42 43 44 45 45 46 46 47 47 48 50 53 52 50 49 50 51 51 48 45 41 37
19 22 23 22 22 23 23 23 24 25 24 23 22 20 18 16 15 14 14 14 14 13 13 12 11 10 9 8 7 5 4 3 3 2 3 4 6 8 9 10 12 13 14 16 17 18 19 21 22 22 23 24 26 27 28 29 31 32 33 34 36 38 39 41 42 44 45 45 46 46 47 47 48 49 51 53 52 50 49 50 51 50 48 45 42
20 22 22 22 23 23 23 24 25 25 25 24 23 20 17 16 15 15 14 14 14 13 13 12 11 10 9 8 6 5 3 1 0 2 4 5 6 8 9 10 12 13 14 16 17 18 20 21 22 23 23 24 25 26 28 29 30 31 32 33 35 36 38 40 42 43 44 45 45 46 46 47 47 48 49 51 52 51 50 49 49 50 49 46 44
21 23 23 23 23 23 24 25 26 26 25 24 22 19 17 18 17 16 15 15 15 14 13 13 12 10 9 8 6 4 3 2 3 4 5 6 7 8 10 11 12 13 15 16 17 18 20 21 22 23 23 24 25 26 27 28 29 30 32 33 34 35 37 38 40 41 42 44 45 46 46 46 46 47 47 48 50 51 50 49 48 49 49 48 46
23 24 23 23 23 22 24 26 26 26 25 23 21 19 19 20 19 17 17 16 16 15 15 13 12 11 10 8 6 5 4 5 5 6 7 7 8 9 10 11 13 14 15 16 17 18 20 21 22 23 23 24 25 26 27 28 28 29 30 31 33 33 34 36 38 39 40 42 44 45 46 46 46 46 46 47 48 49 49 49 48 47 48 49 48
24 24 23 23 22 22 24 26 26 26 25 23 20 19 21 21 20 18 17 17 16 16 15 14 13 12 11 9 7 7 6 7 7 7 8 8 9 9 10 12 13 14 16 17 18 19 20 21 22 23 23 23 24 25 26 27 28 29 29 30 31 32 33 34 35 37 39 40 42 43 45 45 46 46 46 46 46 47 48 48 48 47 47 46 47
25 24 24 24 24 24 26 27 27 27 25 22 21 21 22 22 20 18 17 17 17 16 16 15 14 13 11 10 9 8 8 8 8 8 9 9 10 10 11 13 14 15 16 18 18 19 20 21 22 23 22 23 23 24 25 26 27 29 29 30 31 32 32 33 34 35 37 38 40 41 43 44 45 45 45 45 45 46 46 46 46 46 46 45 44
25 25 26 27 27 27 27 28 28 28 27 24 23 23 23 22 20 19 18 18 17 16 16 15 15 13 12 11 10 9 9 9 9 9 9 10 10 12 13 14 15 16 17 18 19 19 20 21 22 23 22 22 22 23 23 24 26 27 28 29 29 30 31 32 33 33 34 36 38 39 41 42 43 44 45 45 44 44 44 44 44 44 45 45 44
26 26 27 27 27 27 28 29 30 30 28 26 25 25 24 23 21 20 19 18 17 16 16 15 14 13 13 12 11 10 10 10 10 10 10 11 12 13 14 16 17 17 18 19 20 20 20 21 22 22 22 22 22 22 22 22 23 25 26 27 28 29 30 30 31 31 32 33 35 37 38 40 41 42 43 44 44 43 43 43 42 42 42 43 44
28 28 28 28 28 28 29 30 31 31 29 27 26 25 24 23 22 21 20 19 18 16 16 15 14 13 13 13 12 11 11 11 11 11 13 14 15 16 17 17 18 18 19 20 20 20 20 21 22 23 23 23 22 22 21 21 21 22 23 25 25 26 27 28 29 29 30 30 32 34 36 37 38 40 41 42 42 42 42 42 41 41 40 41 41
30 30 31 33 33 32 32 33 33 32 29 27 26 26 24 23 22 21 20 19 18 17 16 15 13 13 13 14 13 13 12 12 12 13 15 16 17 18 19 18 19 19 19 19 20 20 20 21 23 23 23 23 22 21 21 20 20 20 21 22 23 23 24 26 27 27 28 29 29 31 32 34 35 37 38 39 40 41 41 41 40 40 39 38 38
29 30 32 34 35 35 36 36 35 32 30 27 26 26 25 23 23 23 21 20 19 18 17 15 14 14 14 15 14 14 13 13 14 15 16 18 19 19 20 19 19 19 19 19 19 19 20 21 22 22 22 22 22 21 21 20 19 19 20 21 22 22 22 23 24 25 26 27 27 28 29 31 32 33 35 37 38 38 38 39 39 38 38 37 36
27 28 30 32 33 34 36 36 34 32 30 28 27 26 25 23 23 24 23 21 21 20 18 16 15 15 15 15 15 15 15 15 16 17 18 19 19 19 19 19 19 19 19 19 19 19 20 21 21 21 21 21 21 21 21 21 20 19 20 21 22 22 21 21 21 22 23 24 26 26 27 28 29 30 32 33 34 35 36 36 36 36 36 36 35
25 26 27 29 31 34 36 35 34 32 30 27 26 26 24 23 23 24 23 22 21 20 18 17 16 16 16 16 17 17 17 17 18 19 19 19 19 19 19 19 19 19 18 18 18 19 20 20 19 19 20 21 21 21 22 22 21 20 20 22 22 23 22 21 20 20 21 22 23 24 25 25 26 27 28 29 30 32 33 34 34 34 34 34 34
25 26 27 29 31 34 36 35 33 31 28 27 27 26 24 23 24 24 24 22 20 20 19 18 18 18 18 18 18 18 18 19 19 20 20 19 19 19 19 19 19 19 19 19 18 19 19 19 17 17 18 19 20 20 20 21 21 21 21 22 23 24 23 22 21 20 20 20 21 22 23 23 24 25 25 26 27 28 29 31 32 32 32 32 32
24 25 27 30 33 36 37 35 32 29 28 27 27 26 24 24 24 24 24 22 21 20 20 20 20 20 20 19 19 19 19 20 20 20 20 19 19 19 19 19 19 19 19 19 18 18 18 17 16 15 16 17 17 17 18 19 21 22 22 23 25 25 25 23 21 20 20 21 21 21 21 22 23 23 24 24 24 25 26 27 29 29 29 29 29
23 24 26 31 36 38 37 33 31 29 28 27 26 25 25 24 23 24 24 23 22 22 21 21 21 21 20 20 20 20 20 20 20 19 19 19 19 19 19 19 19 19 19 18 18 18 17 17 16 15 15 15 15 15 16 17 19 20 21 23 25 26 26 25 23 21 20 21 22 22 22 21 22 22 23 23 23 23 23 24 25 26 27 27 27
22 23 27 32 36 36 34 31 29 29 28 27 27 26 25 24 23 24 24 24 24 23 22 21 21 21 21 21 21 21 21 20 19 19 19 19 19 19 19 19 19 19 19 18 18 17 17 17 17 17 17 17 17 17 17 17 17 18 19 21 23 24 26 26 24 22 21 20 21 22 22 22 22 22 22 22 22 21 21 21 21 22 23 24 25
22 24 28 32 33 32 29 28 28 28 27 26 26 25 25 24 23 23 23 23 24 24 23 22 22 22 22 22 22 21 21 20 20 19 19 19 19 19 20 20 19 19 19 18 17 16 16 16 17 18 19 20 20 19 19 18 17 17 17 18 20 22 23 23 23 22 21 20 20 20 21 22 22 22 22 21 21 20 20 20 19 19 20 21 22
22 25 28 29 30 29 27 27 26 26 25 25 25 25 24 23 23 22 22 23 23 23 23 23 23 23 22 22 21 21 21 21 20 20 19 19 20 20 20 20 20 20 19 19 18 17 17 17 17 19 20 21 21 21 20 18 16 15 15 16 17 18 18 19 20 20 21 21 20 20 20 20 21 22 22 22 21 20 20 19 19 18 18 18 19
22 24 26 26 26 26 26 25 25 24 24 24 24 24 23 22 21 21 21 22 22 22 22 22 22 22 22 21 21 21 21 21 21 20 20 20 20 20 21 21 20 20 20 19 18 18 18 18 18 18 19 21 22 22 21 19 16 15 14 13 12 13 16 18 20 21 22 22 23 23 22 20 20 20 21 22 22 21 20 19 18 18 17 16 17
20 22 24 25 25 25 25 24 24 24 24 24 23 23 22 22 21 21 21 22 22 21 21 21 22 22 22 22 22 22 21 21 21 21 21 21 21 21 21 21 21 21 20 19 19 19 19 19 19 19 19 20 21 22 21 19 17 15 15 13 12 12 15 18 20 21 23 24 25 26 25 24 22 20 20 20 21 21 20 19 18 18 17 16 15
Wind_Direction
224 226 232 243 257 268 274 276 276 276 275 275 277 277 277 274 273 274 273 271 266 262 264 266 269 271 274 277 279 281 283 285 288 290 293 297 302 308 313 317 320 323 324 324 325 326 326 327 328 329 328 327 326 325 325 323 323 322 321 320 319 318 317 317 316 316 316 315 315 314 312 310 307 305 302 298 294 291 289 287 284 281 279 277 275
219 223 233 246 261 272 278 278 276 273 271 272 274 274 272 269 270 270 267 264 261 260 261 264 267 270 274 278 281 283 284 286 289 293 298 304 309 313 318 321 323 324 324 325 328 328 327 328 330 329 328 327 326 325 324 324 323 322 321 320 320 320 320 320 319 318 317 317 316 315 314 313 311 309 307 303 300 296 292 290 287 284 281 278 275
223 232 240 250 262 273 279 277 273 269 268 269 270 269 266 266 267 265 262 260 259 260 262 265 269 273 275 279 281 283 285 289 294 300 305 310 313 316 320 324 326 326 325 328 331 330 329 330 330 329 328 327 326 326 325 325 324 323 323 323 323 323 323 322 322 320 319 319 319 318 317 316 315 314 312 309 306 302 298 294 291 289 286 283 279
233 241 248 255 263 272 278 278 274 270 268 268 267 265 264 264 263 258 256 258 258 261 264 267 270 272 274 278 280 283 288 294 300 304 309 312 315 318 322 327 330 328 327 330 332 331 330 331 330 329 329 328 328 328 327 326 326 326 326 326 325 325 325 325 325 324 322 322 322 322 321 320 319 318 317 313 310 307 304 300 297 294 292 290 286
240 246 250 256 262 270 277 279 277 273 271 270 266 264 262 259 255 252 253 257 260 262 264 265 268 269 272 275 279 286 293 298 303 306 311 315 318 322 325 330 332 330 329 329 331 332 331 331 331 330 330 330 330 330 329 329 329 328 327 327 327 327 327 327 327 327 326 326 326 325 325 324 322 321 319 315 311 309 306 304 302 299 296 293 290
244 249 254 258 263 271 278 282 281 276 272 269 265 261 258 252 247 248 253 258 260 261 260 261 263 265 269 275 281 290 296 300 306 310 314 319 322 325 327 331 333 332 329 329 331 333 333 333 333 332 332 333 332 332 332 332 331 330 329 329 328 329 330 330 330 330 330 330 329 328 327 326 324 322 320 317 313 311 308 305 303 300 296 292 288
245 249 254 259 266 274 280 283 282 277 272 266 260 256 251 245 241 245 252 258 258 257 256 256 259 262 268 277 285 293 299 304 310 314 318 323 325 327 328 331 334 333 331 331 333 335 335 334 335 336 336 336 335 335 335 334 334 333 332 332 331 332 333 333 333 333 333 333 332 330 328 327 325 323 321 318 314 312 311 309 307 304 299 293 287
246 246 246 256 267 275 280 281 281 278 270 259 252 250 246 242 241 246 252 256 255 253 250 250 255 261 270 282 289 297 303 308 314 318 322 325 327 328 329 331 334 335 334 334 335 336 336 336 338 338 339 338 339 339 337 336 336 335 335 335 334 335 336 336 336 336 335 335 333 331 329 328 326 324 321 319 316 314 314 314 312 310 306 296 289
247 243 241 254 267 273 276 280 281 277 265 252 247 246 244 242 242 245 249 252 250 247 245 247 254 263 274 285 293 300 306 312 317 321 324 326 328 329 329 331 335 338 338 337 337 338 338 339 340 340 341 343 343 341 339 338 338 337 338 338 338 338 338 338 338 337 336 335 333 331 330 329 328 325 323 321 320 318 318 318 316 315 314 303 293
244 244 247 257 263 266 273 280 281 274 259 246 243 244 243 242 242 244 246 248 246 242 241 246 255 266 277 287 296 303 310 315 319 322 324 325 328 330 331 334 338 340 340 339 340 341 341 341 342 342 344 345 343 342 341 340 340 340 341 341 340 339 339 338 338 337 336 335 334 333 332 330 329 327 325 324 324 323 322 322 321 321 320 311 299
242 246 251 256 257 264 276 279 276 268 252 243 242 242 242 241 239 242 244 243 241 239 240 247 257 270 281 291 300 307 312 317 319 322 324 325 329 333 335 339 341 342 342 342 343 344 344 344 344 345 345 344 343 343 343 343 343 344 344 343 341 340 339 338 337 336 336 335 336 335 334 332 331 330 328 327 326 325 324 324 323 323 322 318 309
238 242 249 255 259 266 273 273 269 260 246 240 239 239 239 238 236 240 241 238 238 238 239 247 259 272 284 295 304 308 312 316 318 321 324 328 333 337 340 343 343 344 344 344 346 346 346 347 347 346 346 344 344 345 345 346 347 347 346 344 342 340 339 338 337 337 337 337 337 337 336 334 332 331 330 328 326 325 323 321 320 320 319 318 314
234 242 251 256 258 260 265 268 264 252 240 236 237 237 237 234 233 237 237 234 235 236 238 248 260 274 287 296 302 306 310 314 318 324 328 332 338 341 343 344 345 346 347 347 349 349 349 349 348 348 347 345 345 347 348 350 350 349 347 344 343 342 340 338 338 338 339 338 338 339 338 335 333 331 329 326 323 321 319 318 317 316 315 314 312
239 250 251 250 251 258 268 269 258 243 235 234 235 236 235 230 229 233 234 231 232 234 239 249 264 278 288 296 301 305 310 316 322 328 332 337 342 344 344 346 348 350 350 350 352 352 352 351 349 348 347 346 347 350 351 352 352 351 349 346 345 344 341 340 340 341 342 341 339 340 339 336 332 329 326 323 320 318 317 316 316 314 312 309 307
241 247 243 240 250 265 272 265 249 237 233 232 233 234 233 229 226 230 233 230 229 234 242 254 269 281 288 295 302 306 312 321 327 332 337 342 346 347 346 347 350 353 353 353 355 355 353 351 350 349 348 348 351 353 353 353 354 353 351 348 347 346 344 342 343 344 345 344 342 341 340 337 333 328 324 321 320 319 318 316 315 313 310 308 305
234 239 237 240 255 267 270 259 243 234 231 232 233 232 231 228 224 227 230 230 229 234 245 259 272 280 287 294 300 307 317 326 331 335 341 346 348 348 348 350 353 355 356 357 359 356 353 352 352 351 349 351 354 354 354 354 354 354 353 351 350 349 346 344 345 347 348 346 344 343 341 338 333 327 324 324 323 321 318 317 316 315 313 312 309
234 236 237 247 259 265 263 250 235 230 230 232 231 229 227 225 223 224 226 228 232 238 248 262 271 278 288 294 299 311 322 330 335 339 344 349 350 349 352 355 356 357 359 1 360 356 354 355 354 352 352 354 355 354 354 355 355 356 355 354 353 351 349 348 349 350 350 348 347 345 343 339 334 328 326 327 326 324 321 320 320 318 318 318 317
235 236 246 259 261 259 252 239 228 227 229 229 228 226 224 223 222 222 223 225 232 241 250 262 271 279 288 292 299 315 328 334 339 342 346 350 351 353 358 359 360 1 4 3 359 357 358 357 356 354 354 355 355 355 355 356 357 357 356 356 356 354 352 351 352 352 351 350 350 349 346 342 336 332 331 332 330 328 326 324 323 321 322 324 324
238 244 254 257 256 250 240 228 223 225 226 226 224 221 220 221 222 221 221 224 231 241 251 261 271 281 287 290 300 318 330 335 337 341 349 353 354 360 5 4 5 7 6 3 1 1 1 359 357 356 355 355 356 357 357 358 358 359 358 358 357 355 354 354 353 352 352 352 352 351 350 347 341 337 337 337 336 335 333 328 325 324 325 328 329
243 247 249 251 252 245 231 222 222 223 223 222 220 218 218 219 220 220 221 223 229 236 245 255 264 273 278 282 296 315 325 325 331 347 356 357 2 8 11 11 12 11 7 5 4 4 2 1 359 357 356 356 358 359 0 0 0 1 0 359 359 357 356 355 354 352 353 354 354 354 353 350 346 342 343 344 343 343 339 333 328 327 327 331 335
238 242 249 256 251 236 222 218 221 222 221 218 216 216 216 215 216 218 218 221 227 230 237 251 264 266 265 272 286 300 305 312 336 359 3 4 11 16 17 18 17 13 10 9 8 5 4 3 0 358 358 359 0 2 3 3 3 4 3 1 360 358 355 355 354 353 354 355 356 357 356 353 350 348 350 352 352 350 344 337 332 328 327 332 340
236 243 253 252 238 221 214 216 219 219 218 216 213 213 213 213 214 214 214 217 219 220 229 245 253 253 251 254 265 275 284 311 358 12 12 15 20 24 25 23 19 15 14 13 9 5 5 4 2 1 1 1 2 4 4 5 6 6 5 3 1 359 357 356 355 354 356 358 359 360 359 356 354 353 355 358 359 355 349 342 335 328 326 333 339
240 248 251 238 221 212 211 215 218 218 215 213 211 209 210 212 213 212 212 214 211 213 227 240 244 243 240 237 237 243 263 4 32 27 27 29 29 32 31 25 19 18 18 14 9 6 6 6 4 3 2 2 4 4 5 6 8 8 6 4 3 2 360 358 357 357 358 360 2 3 2 359 357 356 358 0 3 2 356 348 340 332 327 331 338
241 250 246 227 213 209 211 214 216 215 212 210 209 207 207 208 209 209 208 206 205 210 221 236 243 238 230 224 217 204 153 64 55 45 41 41 39 38 34 24 18 21 20 15 10 8 7 7 6 4 3 3 4 4 4 6 9 9 7 5 5 4 3 1 0 360 360 2 5 6 4 2 360 358 359 2 6 9 6 357 348 340 331 330 341
246 251 242 221 209 209 211 213 213 211 210 209 207 207 207 206 205 205 202 198 200 206 211 221 228 225 215 205 194 165 111 78 68 59 52 49 45 41 33 21 17 20 19 14 9 7 7 8 7 4 3 4 3 2 3 6 9 10 8 7 6 6 5 4 3 2 2 4 7 7 6 5 2 1 1 4 8 13 13 8 2 355 339 330 343
244 247 233 215 208 208 211 212 211 209 208 206 204 204 204 203 202 200 197 197 202 208 214 215 216 213 203 187 170 147 114 90 77 68 60 53 46 38 28 18 14 16 17 11 6 4 6 7 6 4 3 4 3 1 2 5 8 9 8 8 7 8 7 6 6 5 5 6 7 8 7 7 5 3 3 7 11 15 18 17 14 12 6 353 353
241 238 221 209 207 208 210 211 210 208 207 204 203 203 201 199 198 195 195 204 213 217 216 210 206 204 194 174 158 142 119 101 85 70 59 51 42 30 20 14 9 10 12 8 2 360 1 2 3 2 2 3 3 1 2 4 5 7 8 8 8 9 8 8 7 7 6 7 8 8 8 8 8 7 6 9 13 17 21 23 22 22 25 28 26
236 224 211 207 207 208 210 210 209 208 207 205 204 203 201 197 194 193 201 212 218 219 215 206 198 193 182 165 154 143 126 112 90 69 56 44 31 19 13 9 4 3 4 2 357 355 356 357 359 359 359 360 1 1 2 4 4 5 7 7 8 9 9 8 9 9 8 9 9 8 9 10 11 10 9 11 14 17 21 26 29 30 32 37 44
226 212 205 204 205 207 209 208 207 206 206 206 204 201 197 194 192 199 210 217 218 217 213 202 189 182 174 163 155 147 135 117 87 67 52 32 16 8 3 360 359 358 357 356 354 352 351 352 354 355 355 356 357 359 1 4 5 5 5 6 7 8 8 8 10 11 10 10 10 10 10 10 12 13 12 13 15 18 21 25 30 34 36 40 45
218 207 204 204 205 207 209 208 206 204 204 205 204 199 193 192 197 206 212 216 218 216 209 198 186 177 172 166 159 154 143 115 83 61 37 13 2 360 356 352 351 351 350 351 351 350 348 349 350 352 353 353 355 356 358 2 4 5 5 5 6 7 7 8 10 11 11 11 11 11 11 11 13 14 14 14 16 19 21 25 29 33 37 39 43
215 207 205 205 205 207 208 207 206 204 204 203 201 196 193 198 208 214 216 217 217 213 205 197 189 180 176 173 169 163 147 110 80 40 2 352 347 346 348 346 344 344 345 346 348 348 347 346 347 349 350 351 352 354 356 358 1 2 3 4 4 5 6 7 9 10 11 11 12 13 12 12 14 15 15 15 16 19 21 24 28 32 37 39 41
212 206 206 207 207 207 206 205 205 205 204 200 195 193 198 207 214 218 220 220 217 212 205 199 193 187 184 184 181 174 161 138 31 322 326 331 332 336 338 337 337 339 341 343 344 344 344 344 344 346 348 349 350 352 353 355 358 359 1 2 3 4 5 6 7 9 9 10 12 14 14 14 14 16 16 16 16 19 21 24 26 30 35 40 42
209 205 206 208 209 207 205 204 205 204 202 196 192 197 210 215 214 215 220 220 217 213 209 204 199 195 194 196 197 198 207 241 277 298 308 316 324 329 330 330 333 336 338 340 341 341 341 341 342 343 345 347 348 349 350 352 354 356 358 359 1 3 4 4 5 7 8 9 11 13 15 16 15 16 18 18 17 18 20 24 26 28 31 37 41
208 205 206 208 208 207 205 205 204 201 196 191 193 206 216 216 213 213 218 219 218 215 212 208 205 204 205 206 210 220 238 255 274 290 300 309 318 321 323 326 329 332 334 336 338 338 339 339 338 339 342 344 345 347 348 349 351 353 355 356 358 1 2 2 3 5 7 9 10 11 14 15 16 16 18 19 19 19 20 23 26 28 30 32 36
206 204 203 202 203 206 206 206 203 197 191 192 201 211 214 214 214 214 217 220 219 217 214 212 212 212 213 216 221 232 249 263 276 288 297 304 310 313 317 321 325 328 331 331 333 335 335 335 335 336 339 340 342 344 346 346 347 349 351 353 355 357 359 1 2 4 6 7 9 10 12 14 16 17 18 19 20 20 20 22 25 29 31 31 32
205 203 200 198 198 202 205 204 199 193 192 199 209 212 212 215 216 215 217 220 221 219 218 217 218 218 219 223 231 241 254 266 277 287 294 300 305 309 314 318 321 324 325 326 328 330 331 331 331 332 335 337 339 341 343 344 344 345 348 350 351 353 356 358 360 2 4 5 7 9 10 12 15 16 18 19 21 21 21 21 24 28 31 33 33
204 199 197 195 196 200 203 200 193 190 195 205 211 211 213 216 218 217 218 220 221 221 222 221 221 223 225 229 235 245 258 269 277 286 292 296 301 305 309 313 316 318 320 321 323 325 327 328 327 327 329 333 335 337 340 341 342 342 343 346 348 349 352 355 357 359 1 3 6 7 9 10 12 15 17 18 20 22 22 22 23 25 29 33 34
207 199 196 195 196 198 199 195 191 193 201 209 213 213 214 217 219 220 221 222 221 224 226 224 222 225 230 235 240 250 261 270 279 286 290 293 296 300 303 307 310 313 315 317 320 323 325 325 323 322 324 327 330 332 335 337 339 339 339 342 344 345 347 350 353 355 357 0 3 6 8 9 11 12 15 17 18 21 22 23 23 24 26 30 34
211 200 195 195 197 198 196 194 195 200 207 213 216 216 216 218 220 221 222 224 225 228 231 230 228 231 237 244 250 255 261 268 276 283 288 291 294 297 301 304 307 310 313 315 318 321 322 321 319 318 321 324 325 326 327 330 334 335 334 337 340 342 343 344 347 351 354 357 0 3 6 8 9 11 12 15 17 19 21 22 23 23 25 28 33
213 202 196 197 198 195 193 196 201 205 210 216 219 218 217 221 224 224 224 225 227 231 234 235 235 237 241 247 253 257 259 264 271 278 284 288 292 297 301 304 306 309 311 312 315 318 319 316 315 317 321 323 322 321 320 323 327 329 329 330 333 337 339 340 342 346 350 353 356 359 2 5 8 9 11 13 15 17 18 20 21 22 24 26 30
221 213 207 205 202 197 195 200 205 207 211 219 222 220 219 222 226 227 227 228 231 233 233 233 234 237 240 245 250 254 258 265 272 278 282 287 291 296 300 303 306 308 309 310 314 317 316 314 314 317 320 320 320 318 317 318 320 323 323 323 326 329 333 335 338 341 345 348 351 354 358 1 4 7 9 11 13 14 16 18 20 21 22 24 27
234 227 219 213 207 201 199 201 204 207 212 220 224 222 222 225 227 227 227 228 230 231 231 230 232 236 240 246 252 258 264 271 276 280 283 287 291 295 299 301 304 305 307 310 313 315 313 312 313 316 318 319 319 318 316 314 315 316 316 316 318 322 325 328 332 335 339 343 345 348 352 356 359 2 6 8 10 11 13 15 18 20 21 23 25
243 237 227 217 210 205 201 201 203 208 215 224 227 226 227 231 232 230 230 229 230 231 232 234 237 242 247 253 259 265 271 275 278 281 285 289 293 296 298 300 301 303 305 309 312 312 310 310 312 315 317 319 319 318 317 317 317 316 314 312 313 315 318 321 324 328 333 337 339 342 346 349 353 357 0 3 6 9 10 12 15 18 20 21 23
244 236 226 216 209 204 200 201 206 211 218 225 227 227 230 235 236 234 234 233 234 235 237 240 244 247 251 256 261 267 272 276 279 283 286 290 294 296 297 298 300 302 304 307 308 308 307 309 313 317 318 318 319 319 320 321 321 319 317 314 312 312 313 315 318 322 327 330 333 335 339 342 345 350 354 357 1 4 6 8 11 13 17 19 21
242 232 221 211 204 199 199 203 209 214 220 225 227 229 233 236 237 237 236 237 238 238 240 243 246 250 253 258 263 268 273 276 280 283 287 290 292 294 295 296 298 299 301 302 302 303 305 308 314 317 317 316 315 316 318 319 320 319 319 318 316 315 314 314 315 318 322 325 326 328 332 336 339 343 347 350 354 358 1 4 6 8 11 15 18
240 229 216 204 198 197 199 204 210 215 222 227 229 232 235 237 237 237 238 240 241 242 243 246 249 253 257 261 265 268 271 275 279 282 285 287 289 290 291 293 294 295 297 298 299 302 304 307 312 316 317 316 315 315 317 318 317 317 318 319 318 318 318 318 319 320 322 323 324 324 325 328 331 335 339 343 347 350 353 357 0 3 5 9 14
236 224 212 203 199 198 200 205 212 218 224 228 230 233 237 237 237 237 239 242 245 246 247 250 253 255 258 261 264 267 272 276 280 282 283 284 287 288 289 290 292 293 295 297 300 303 305 307 311 316 318 319 319 322 325 326 323 321 321 321 320 320 321 323 326 328 328 325 323 323 323 324 324 326 330 334 339 343 345 348 352 357 360 2 6
229 219 211 205 202 200 202 208 215 220 223 227 230 233 236 237 236 237 239 242 245 247 249 251 254 257 260 263 267 272 276 278 280 281 281 283 285 286 287 289 291 292 295 298 302 304 305 307 310 314 317 320 322 326 330 332 330 327 328 327 326 326 329 333 336 339 339 335 328 324 322 321 321 322 322 324 328 334 338 339 342 347 352 355 358
223 218 213 207 203 202 205 211 216 219 223 227 232 234 235 237 237 238 240 242 244 246 248 251 255 259 263 267 270 274 276 278 279 280 281 283 285 286 288 289 290 292 295 298 302 305 306 307 309 313 316 319 322 325 330 333 331 329 330 333 334 337 343 349 351 353 353 351 346 339 330 323 319 318 318 317 318 322 327 331 333 337 341 346 349
220 218 214 209 206 206 209 212 215 219 224 229 233 236 238 240 240 241 243 246 247 249 252 255 259 262 266 269 271 272 274 276 278 279 281 283 285 286 287 288 290 291 294 297 301 304 306 307 309 312 315 317 319 322 326 329 330 328 328 332 340 348 353 355 355 354 354 354 353 351 346 336 326 318 314 313 312 312 315 320 324 327 330 334 338
217 216 213 210 208 210 213 215 218 222 226 231 235 238 241 244 245 246 248 251 252 254 256 258 260 262 265 267 269 271 273 275 277 279 281 282 284 285 286 287 289 291 293 296 299 302 304 306 309 311 312 313 315 317 320 324 326 325 320 317 322 335 343 346 347 348 348 348 347 347 347 345 340 329 316 309 307 306 306 308 312 316 320 322 326
Height
3148 3149 3150 3150 3150 3151 3151 3151 3151 3150 3150 3150 3149 3149 3148 3148 3147 3147 3147 3147 3147 3147 3146 3146 3146 3146 3145 3144 3144 3143 3142 3141 3141 3140 3139 3138 3137 3135 3134 3132 3131 3129 3127 3125 3123 3121 3118 3116 3114 3112 3110 3107 3105 3102 3099 3096 3094 3091 3088 3085 3082 3078 3075 3072 3067 3064 3062 3058 3054 3051 3049 3047 3045 3043 3041 3039 3038 3035 3032 3030 3028 3027 3025 3024 3023
3146 3147 3148 3148 3148 3149 3149 3149 3149 3148 3148 3148 3147 3147 3147 3146 3146 3146 3145 3145 3145 3145 3145 3145 3144 3144 3143 3142 3142 3141 3141 3140 3139 3138 3137 3136 3135 3133 3132 3131 3129 3127 3125 3123 3122 3119 3117 3114 3112 3110 3108 3105 3102 3100 3097 3094 3091 3088 3085 3082 3079 3075 3071 3068 3064 3060 3057 3054 3050 3046 3043 3040 3037 3034 3032 3030 3028 3028 3026 3023 3020 3019 3018 3017 3016
3144 3145 3145 3146 3146 3147 3147 3147 3147 3147 3146 3146 3146 3145 3145 3144 3144 3144 3144 3144 3144 3143 3143 3143 3143 3142 3141 3141 3140 3140 3139 3139 3138 3137 3136 3134 3133 3131 3130 3129 3127 3125 3123 3121 3120 3117 3115 3113 3111 3108 3106 3103 3100 3097 3094 3091 3088 3085 3082 3078 3075 3071 3067 3063 3059 3055 3051 3048 3044 3040 3036 3034 3030 3026 3024 3021 3019 3018 3018 3016 3014 3011 3010 3009 3008
3142 3142 3143 3143 3144 3145 3145 3145 3145 3145 3144 3144 3143 3143 3142 3142 3142 3142 3142 3142 3142 3142 3142 3141 3141 3140 3140 3139 3139 3139 3138 3137 3136 3135 3134 3132 3131 3129 3128 3127 3125 3123 3121 3119 3118 3115 3113 3111 3109 3106 3104 3101 3098 3095 3092 3089 3085 3082 3078 3075 3071 3067 3064 3060 3056 3051 3047 3043 3040 3035 3031 3027 3024 3021 3017 3013 3011 3010 3009 3008 3007 3005 3004 3002 3001
3139 3139 3140 3141 3142 3142 3142 3142 3142 3142 3142 3141 3141 3141 3140 3140 3140 3140 3140 3140 3141 3140 3140 3140 3139 3139 3138 3138 3138 3137 3136 3135 3134 3133 3132 3131 3129 3127 3126 3125 3123 3121 3119 3117 3116 3114 3112 3109 3107 3104 3101 3098 3095 3093 3090 3086 3083 3079 3075 3072 3068 3065 3061 3057 3053 3048 3044 3039 3035 3031 3027 3023 3019 3016 3012 3007 3003 3001 3001 3001 3001 2999 2997 2996 2995
3136 3136 3138 3139 3139 3139 3139 3140 3139 3139 3139 3139 3139 3139 3138 3139 3139 3138 3139 3139 3139 3139 3138 3138 3138 3138 3137 3137 3136 3136 3135 3134 3133 3131 3130 3129 3127 3125 3124 3123 3122 3120 3117 3116 3114 3112 3110 3107 3105 3102 3099 3096 3093 3090 3087 3084 3080 3076 3073 3069 3065 3062 3058 3054 3050 3045 3041 3036 3031 3026 3023 3019 3014 3010 3007 3003 2997 2993 2991 2991 2993 2992 2990 2988 2987
3133 3134 3135 3136 3136 3136 3137 3137 3137 3136 3136 3136 3137 3137 3137 3137 3137 3137 3137 3138 3138 3137 3137 3137 3136 3136 3136 3135 3135 3134 3133 3132 3131 3130 3128 3127 3125 3124 3122 3121 3120 3118 3116 3114 3112 3109 3107 3105 3102 3100 3097 3094 3091 3087 3084 3081 3078 3074 3070 3066 3062 3058 3054 3050 3046 3042 3037 3033 3029 3023 3019 3015 3010 3006 3002 2998 2993 2989 2984 2980 2980 2981 2981 2979 2978
3131 3132 3133 3134 3133 3134 3134 3134 3134 3134 3134 3134 3134 3135 3135 3135 3135 3135 3136 3136 3136 3136 3135 3135 3135 3135 3135 3134 3133 3133 3132 3131 3129 3128 3126 3125 3124 3122 3120 3119 3118 3116 3114 3112 3110 3107 3105 3102 3100 3097 3095 3092 3088 3085 3081 3078 3075 3072 3068 3064 3059 3055 3051 3047 3042 3038 3034 3030 3025 3020 3015 3011 3006 3001 2997 2992 2987 2984 2980 2975 2970 2969 2970 2970 2969
3128 3129 3131 3132 3131 3132 3132 3132 3132 3132 3132 3132 3132 3133 3133 3133 3133 3134 3134 3134 3134 3134 3134 3134 3134 3133 3133 3133 3132 3131 3130 3129 3127 3126 3125 3123 3122 3121 3119 3118 3116 3115 3112 3110 3108 3105 3103 3100 3098 3095 3092 3089 3086 3083 3080 3077 3073 3069 3065 3061 3056 3052 3047 3043 3039 3035 3031 3027 3022 3017 3011 3007 3002 2996 2991 2987 2982 2977 2974 2970 2965 2962 2960 2960 2960
3126 3127 3128 3129 3129 3130 3130 3130 3130 3130 3129 3130 3130 3131 3131 3132 3132 3132 3132 3133 3133 3133 3132 3132 3132 3132 3132 3131 3130 3129 3128 3127 3125 3124 3123 3122 3121 3119 3118 3116 3114 3113 3111 3108 3106 3104 3101 3098 3096 3093 3090 3088 3085 3082 3079 3076 3072 3068 3063 3059 3054 3049 3045 3041 3037 3032 3028 3023 3019 3013 3008 3003 2998 2993 2987 2982 2978 2973 2969 2965 2960 2956 2953 2950 2951
3124 3125 3126 3126 3127 3127 3128 3128 3128 3127 3127 3128 3128 3129 3129 3130 3130 3130 3131 3131 3131 3131 3131 3131 3130 3130 3130 3129 3128 3127 3126 3125 3124 3123 3122 3121 3120 3118 3116 3114 3113 3111 3109 3107 3105 3102 3100 3097 3094 3092 3089 3087 3084 3082 3078 3075 3071 3067 3062 3057 3053 3048 3043 3039 3034 3030 3026 3021 3016 3011 3005 2999 2995 2990 2984 2978 2973 2969 2964 2960 2954 2950 2947 2943 2941
3122 3123 3123 3124 3125 3125 3125 3125 3125 3125 3125 3126 3127 3127 3128 3128 3128 3129 3129 3130 3130 3129 3129 3129 3129 3129 3128 3127 3126 3125 3124 3124 3123 3122 3120 3119 3118 3116 3114 3113 3111 3110 3108 3106 3103 3101 3098 3096 3093 3090 3088 3086 3083 3080 3077 3073 3069 3065 3061 3056 3052 3048 3043 3038 3033 3029 3024 3019 3014 3009 3004 2997 2991 2987 2981 2975 2969 2964 2959 2956 2951 2946 2942 2938 2934
3119 3120 3121 3122 3122 3122 3122 3122 3122 3122 3123 3124 3124 3125 3126 3126 3127 3127 3128 3128 3128 3128 3128 3127 3127 3127 3126 3126 3125 3124 3123 3122 3121 3120 3119 3118 3116 3114 3113 3112 3110 3109 3107 3104 3102 3100 3097 3095 3092 3090 3087 3085 3082 3079 3075 3072 3068 3064 3060 3056 3052 3048 3043 3039 3034 3029 3023 3018 3012 3007 3002 2995 2989 2984 2980 2973 2966 2960 2955 2950 2946 2941 2937 2932 2928
3116 3117 3118 3119 3119 3119 3119 3120 3120 3120 3121 3122 3122 3123 3124 3125 3125 3125 3126 3127 3127 3126 3126 3126 3126 3126 3125 3124 3124 3123 3122 3121 3120 3119 3117 3116 3115 3113 3112 3111 3109 3108 3105 3103 3101 3099 3096 3094 3091 3089 3086 3084 3080 3077 3073 3070 3066 3062 3058 3055 3051 3046 3042 3038 3034 3029 3024 3018 3012 3006 3001 2995 2988 2983 2978 2973 2966 2958 2951 2944 2940 2935 2930 2926 2922
3113 3114 3115 3116 3116 3116 3117 3117 3117 3118 3119 3120 3121 3122 3122 3123 3124 3124 3125 3125 3125 3125 3125 3125 3125 3124 3124 3123 3122 3121 3120 3119 3118 3117 3116 3115 3113 3112 3111 3110 3108 3106 3104 3102 3100 3097 3095 3093 3091 3088 3085 3082 3079 3075 3071 3068 3064 3061 3057 3053 3049 3045 3040 3036 3032 3027 3022 3017 3011 3005 2999 2994 2988 2982 2977 2971 2964 2956 2949 2942 2936 2929 2924 2919 2916
3110 3111 3112 3113 3113 3114 3114 3115 3115 3116 3118 3118 3119 3120 3121 3122 3122 3123 3123 3124 3124 3124 3124 3124 3123 3123 3122 3122 3121 3120 3119 3118 3117 3116 3115 3114 3112 3111 3110 3109 3107 3105 3103 3101 3099 3097 3095 3092 3090 3087 3084 3081 3077 3074 3070 3067 3063 3060 3056 3052 3048 3044 3039 3035 3031 3026 3021 3016 3010 3005 2999 2993 2988 2982 2976 2969 2961 2953 2945 2938 2931 2924 2917 2912 2908
3107 3108 3109 3110 3111 3112 3112 3112 3113 3115 3116 3117 3118 3119 3119 3120 3121 3122 3122 3122 3122 3122 3123 3122 3122 3122 3121 3120 3119 3119 3118 3117 3116 3115 3114 3113 3112 3111 3109 3108 3106 3104 3102 3100 3098 3096 3094 3092 3089 3086 3083 3080 3077 3073 3070 3066 3062 3058 3055 3051 3046 3042 3038 3034 3029 3025 3020 3015 3010 3004 2998 2992 2986 2980 2975 2967 2959 2949 2939 2931 2924 2918 2911 2905 2901
3105 3106 3107 3108 3108 3109 3109 3110 3111 3113 3114 3115 3116 3117 3118 3119 3120 3121 3121 3121 3121 3121 3121 3121 3121 3120 3120 3119 3118 3117 3117 3116 3115 3114 3113 3112 3111 3110 3109 3107 3105 3103 3101 3099 3098 3096 3093 3091 3088 3085 3082 3079 3076 3073 3069 3065 3062 3057 3053 3049 3044 3040 3035 3031 3026 3022 3018 3013 3008 3003 2997 2991 2984 2978 2972 2965 2956 2947 2936 2927 2920 2913 2907 2902 2897
3102 3103 3104 3105 3106 3106 3107 3108 3109 3111 3112 3114 3115 3116 3117 3118 3119 3119 3120 3120 3120 3120 3120 3120 3120 3119 3118 3118 3117 3116 3116 3115 3114 3113 3112 3112 3111 3109 3108 3106 3105 3103 3101 3099 3098 3095 3093 3090 3087 3085 3082 3079 3076 3073 3069 3065 3061 3056 3051 3047 3042 3038 3033 3028 3023 3019 3015 3010 3005 3000 2994 2988 2982 2975 2969 2962 2952 2943 2933 2925 2917 2910 2904 2900 2895
3100 3101 3102 3102 3103 3103 3104 3106 3108 3109 3111 3112 3113 3114 3115 3116 3117 3118 3118 3118 3119 3119 3119 3119 3118 3118 3117 3117 3116 3116 3115 3114 3114 3113 3112 3111 3110 3109 3107 3106 3104 3102 3101 3099 3097 3095 3093 3090 3088 3085 3082 3079 3076 3073 3069 3065 3060 3056 3050 3045 3041 3036 3031 3027 3022 3018 3013 3008 3003 2997 2991 2985 2980 2973 2966 2958 2948 2938 2930 2922 2914 2907 2901 2897 2894
3097 3098 3099 3099 3100 3101 3102 3104 3106 3107 3109 3110 3112 3113 3114 3115 3116 3116 3117 3117 3117 3118 3118 3117 3117 3117 3116 3116 3115 3115 3114 3114 3113 3112 3112 3111 3109 3108 3107 3105 3103 3102 3101 3100 3098 3095 3093 3091 3088 3085 3082 3079 3075 3072 3068 3065 3060 3055 3050 3045 3040 3036 3031 3027 3023 3018 3013 3008 3002 2996 2989 2983 2977 2971 2963 2954 2944 2935 2927 2919 2912 2906 2900 2895 2892
3094 3095 3096 3096 3097 3099 3101 3102 3104 3105 3107 3108 3110 3111 3113 3114 3114 3115 3115 3116 3116 3116 3116 3116 3116 3116 3115 3115 3114 3114 3114 3113 3112 3112 3111 3110 3109 3108 3106 3104 3103 3102 3101 3099 3097 3095 3093 3091 3088 3085 3081 3078 3075 3071 3068 3064 3060 3055 3050 3046 3041 3037 3032 3027 3023 3018 3013 3007 3001 2994 2987 2980 2974 2967 2960 2951 2942 2933 2925 2918 2911 2904 2899 2895 2891
3091 3092 3093 3094 3095 3097 3099 3100 3102 3103 3105 3107 3108 3110 3111 3112 3112 3113 3114 3114 3115 3115 3115 3115 3115 3115 3115 3114 3114 3114 3113 3112 3112 3111 3110 3109 3108 3107 3105 3104 3103 3103 3101 3099 3097 3095 3093 3090 3087 3084 3081 3078 3074 3071 3068 3064 3059 3054 3050 3046 3042 3037 3032 3028 3023 3017 3012 3006 3000 2993 2986 2979 2972 2965 2957 2950 2942 2933 2924 2917 2910 2903 2898 2894 2890
3089 3090 3090 3092 3093 3095 3097 3098 3100 3102 3103 3105 3107 3108 3109 3110 3111 3112 3112 3113 3113 3114 3114 3114 3114 3114 3114 3114 3113 3113 3112 3112 3111 3110 3109 3109 3107 3106 3105 3104 3104 3102 3100 3099 3097 3095 3092 3090 3087 3084 3081 3077 3074 3071 3068 3064 3059 3055 3051 3046 3042 3038 3033 3027 3022 3017 3011 3005 2999 2992 2986 2980 2972 2964 2958 2951 2943 2934 2925 2918 2911 2904 2898 2893 2890
3086 3087 3088 3090 3092 3093 3095 3096 3098 3100 3102 3103 3105 3106 3108 3108 3109 3110 3111 3112 3112 3113 3113 3114 3114 3113 3113 3113 3112 3112 3111 3111 3110 3110 3109 3108 3106 3105 3105 3104 3103 3102 3100 3098 3096 3094 3092 3089 3086 3083 3080 3077 3074 3071 3068 3064 3059 3055 3051 3047 3043 3038 3033 3027 3022 3016 3011 3004 2998 2993 2987 2981 2975 2967 2961 2954 2945 2935 2926 2919 2912 2906 2899 2894 2891
3084 3085 3086 3088 3090 3091 3093 3094 3096 3098 3100 3101 3103 3105 3106 3107 3108 3109 3110 3111 3111 3112 3113 3113 3113 3113 3112 3112 3111 3111 3110 3110 3109 3109 3108 3106 3105 3105 3105 3104 3103 3101 3099 3097 3095 3093 3091 3089 3086 3083 3081 3077 3074 3071 3067 3063 3059 3056 3052 3048 3043 3038 3033 3027 3022 3016 3011 3005 2999 2994 2989 2984 2978 2971 2964 2956 2946 2936 2928 2920 2913 2907 2901 2896 2893
3082 3083 3084 3086 3088 3089 3091 3092 3094 3096 3098 3099 3101 3102 3104 3105 3106 3108 3109 3109 3110 3111 3112 3112 3112 3111 3111 3111 3110 3110 3109 3109 3109 3108 3107 3105 3105 3105 3105 3104 3102 3100 3098 3097 3095 3093 3091 3088 3086 3083 3080 3077 3074 3071 3068 3064 3060 3056 3052 3048 3043 3038 3033 3028 3023 3018 3012 3007 3001 2996 2992 2987 2981 2973 2965 2956 2948 2940 2931 2923 2915 2909 2903 2898 2895
3079 3081 3082 3084 3085 3087 3089 3091 3092 3094 3096 3098 3099 3101 3102 3104 3105 3106 3107 3108 3109 3110 3111 3111 3111 3110 3110 3110 3109 3109 3109 3109 3108 3107 3105 3105 3106 3105 3104 3103 3101 3100 3098 3096 3094 3092 3090 3088 3086 3083 3080 3078 3075 3072 3069 3064 3060 3056 3052 3048 3044 3039 3035 3030 3025 3019 3014 3008 3003 2998 2993 2988 2981 2974 2967 2959 2951 2943 2935 2927 2920 2913 2907 2901 2897
3077 3078 3080 3081 3083 3085 3087 3088 3090 3093 3095 3096 3098 3099 3101 3103 3104 3105 3106 3107 3108 3109 3109 3110 3110 3109 3109 3109 3109 3108 3108 3108 3107 3106 3105 3106 3105 3105 3103 3102 3101 3099 3098 3096 3094 3092 3090 3088 3085 3083 3080 3078 3075 3072 3068 3064 3060 3056 3052 3048 3044 3040 3036 3031 3026 3020 3015 3009 3004 2999 2993 2988 2982 2976 2970 2963 2955 2947 2940 2932 2924 2918 2912 2906 2901
3074 3075 3077 3079 3081 3082 3084 3086 3089 3091 3093 3094 3096 3098 3099 3101 3102 3103 3104 3105 3106 3107 3108 3108 3108 3108 3108 3108 3108 3108 3107 3106 3105 3105 3105 3105 3105 3104 3103 3101 3100 3099 3097 3095 3093 3091 3089 3087 3085 3082 3079 3076 3073 3070 3067 3063 3060 3056 3052 3048 3044 3040 3036 3032 3027 3021 3016 3011 3005 3000 2995 2990 2984 2978 2972 2966 2959 2952 2945 2937 2930 2923 2916 2910 2906
3071 3073 3075 3077 3078 3080 3082 3085 3087 3089 3091 3093 3095 3097 3098 3100 3101 3102 3103 3104 3105 3106 3107 3107 3107 3107 3107 3107 3107 3107 3106 3105 3105 3105 3105 3105 3104 3103 3102 3101 3100 3098 3096 3095 3093 3090 3088 3086 3084 3081 3078 3075 3072 3069 3066 3062 3059 3056 3052 3049 3045 3041 3037 3032 3027 3023 3018 3013 3008 3002 2997 2992 2986 2980 2975 2969 2963 2956 2949 2943 2936 2929 2922 2916 2911
3069 3071 3073 3075 3076 3078 3080 3083 3085 3087 3089 3091 3093 3095 3097 3098 3099 3101 3102 3103 3104 3105 3105 3105 3106 3106 3106 3106 3106 3105 3105 3104 3104 3104 3104 3104 3103 3102 3101 3100 3099 3097 3096 3094 3092 3089 3087 3085 3083 3080 3078 3075 3072 3069 3065 3062 3059 3055 3052 3049 3045 3041 3037 3033 3028 3024 3020 3015 3010 3005 3000 2994 2989 2984 2978 2973 2967 2961 2954 2947 2941 2935 2929 2923 2918
3067 3069 3071 3072 3074 3076 3078 3081 3083 3085 3087 3089 3091 3094 3095 3097 3098 3100 3101 3102 3102 3103 3104 3104 3104 3105 3105 3105 3104 3104 3104 3104 3104 3104 3103 3103 3102 3101 3100 3099 3098 3096 3094 3093 3090 3088 3086 3084 3082 3079 3077 3074 3071 3068 3065 3062 3059 3056 3052 3049 3046 3042 3038 3034 3030 3026 3022 3017 3012 3007 3002 2998 2993 2988 2982 2977 2971 2965 2959 2953 2947 2941 2935 2929 2924
3065 3066 3068 3070 3072 3074 3077 3079 3081 3084 3086 3088 3090 3092 3094 3095 3096 3098 3099 3100 3101 3102 3102 3103 3103 3103 3103 3103 3103 3103 3103 3103 3103 3103 3102 3101 3101 3100 3099 3098 3096 3095 3093 3091 3089 3087 3085 3083 3081 3078 3076 3073 3070 3068 3065 3062 3059 3056 3053 3050 3046 3043 3040 3036 3032 3028 3023 3019 3014 3010 3005 3000 2996 2991 2985 2980 2976 2971 2965 2958 2952 2946 2941 2936 2931
3062 3064 3065 3067 3070 3073 3075 3078 3080 3082 3085 3087 3089 3091 3092 3093 3095 3096 3097 3099 3100 3100 3101 3101 3102 3102 3102 3102 3102 3102 3102 3102 3102 3101 3101 3100 3099 3099 3098 3096 3095 3093 3092 3090 3088 3086 3084 3082 3080 3077 3075 3072 3070 3067 3064 3061 3058 3056 3053 3050 3047 3044 3040 3037 3033 3029 3025 3021 3016 3012 3007 3003 2998 2994 2989 2984 2979 2974 2969 2964 2958 2952 2947 2943 2938
3059 3061 3062 3064 3067 3070 3072 3075 3078 3081 3083 3086 3088 3089 3090 3092 3093 3094 3096 3097 3098 3099 3099 3100 3100 3100 3100 3100 3100 3100 3101 3100 3100 3100 3099 3099 3098 3097 3096 3095 3093 3092 3090 3088 3087 3085 3083 3081 3079 3076 3074 3071 3069 3066 3064 3061 3058 3055 3052 3050 3047 3044 3041 3038 3034 3030 3026 3022 3018 3014 3010 3005 3001 2997 2993 2988 2983 2978 2974 2970 2965 2959 2954 2950 2945
3056 3057 3059 3061 3064 3067 3070 3073 3076 3079 3081 3084 3085 3087 3088 3090 3091 3093 3094 3095 3096 3097 3097 3098 3098 3099 3099 3099 3099 3099 3099 3099 3099 3098 3098 3097 3096 3096 3094 3093 3092 3090 3089 3087 3085 3084 3082 3079 3077 3075 3073 3070 3068 3065 3063 3060 3058 3055 3052 3050 3047 3044 3041 3038 3034 3031 3028 3024 3020 3016 3012 3008 3003 2999 2995 2991 2987 2983 2979 2975 2970 2966 2961 2956 2952
3054 3055 3057 3059 3062 3064 3067 3071 3074 3076 3079 3081 3083 3085 3086 3088 3090 3091 3093 3094 3094 3095 3096 3096 3097 3097 3097 3097 3097 3097 3097 3097 3097 3096 3096 3095 3095 3094 3093 3092 3090 3089 3087 3086 3084 3082 3080 3078 3076 3073 3071 3069 3066 3064 3062 3060 3057 3055 3052 3049 3047 3044 3042 3039 3036 3033 3029 3026 3022 3018 3014 3010 3006 3002 2998 2994 2990 2986 2982 2979 2975 2972 2967 2962 2957
3051 3052 3055 3057 3059 3062 3066 3069 3071 3073 3076 3079 3081 3083 3084 3086 3088 3089 3091 3092 3093 3093 3094 3094 3095 3095 3095 3095 3095 3096 3096 3095 3095 3095 3094 3094 3093 3092 3091 3090 3088 3087 3085 3084 3082 3080 3078 3076 3074 3072 3069 3067 3065 3063 3061 3059 3057 3054 3051 3049 3047 3044 3042 3039 3037 3034 3030 3027 3024 3020 3016 3013 3009 3005 3001 2998 2994 2990 2986 2983 2979 2976 2972 2968 2963
3047 3049 3051 3053 3055 3059 3062 3065 3068 3070 3073 3076 3078 3081 3082 3084 3086 3087 3088 3090 3091 3091 3092 3092 3093 3093 3093 3093 3094 3094 3094 3094 3093 3093 3092 3092 3091 3090 3089 3088 3086 3085 3083 3082 3080 3078 3076 3074 3072 3070 3067 3065 3063 3061 3059 3057 3055 3053 3050 3048 3045 3043 3041 3039 3036 3034 3031 3028 3025 3022 3018 3015 3012 3008 3005 3001 2997 2993 2990 2986 2983 2980 2977 2974 2970
3045 3046 3047 3049 3052 3055 3059 3062 3064 3067 3071 3073 3076 3078 3080 3082 3083 3085 3086 3087 3088 3089 3090 3090 3091 3091 3092 3092 3092 3092 3092 3092 3091 3091 3090 3090 3089 3088 3086 3085 3084 3082 3081 3079 3078 3076 3074 3072 3070 3067 3065 3063 3061 3059 3057 3056 3054 3052 3049 3046 3044 3042 3040 3038 3036 3034 3031 3029 3026 3023 3020 3017 3014 3010 3007 3004 3000 2997 2994 2991 2987 2984 2981 2978 2976
3043 3044 3045 3047 3050 3052 3055 3058 3062 3065 3068 3070 3073 3075 3077 3079 3081 3082 3083 3085 3086 3087 3088 3088 3089 3089 3090 3090 3090 3090 3089 3089 3089 3089 3088 3087 3086 3085 3084 3083 3081 3080 3079 3077 3075 3073 3071 3070 3068 3065 3063 3062 3059 3057 3055 3054 3052 3050 3048 3045 3043 3041 3039 3037 3035 3033 3031 3029 3027 3024 3021 3018 3015 3013 3009 3006 3003 3000 2997 2995 2991 2988 2985 2982 2980
3041 3042 3043 3045 3047 3050 3053 3056 3060 3063 3065 3068 3071 3073 3075 3076 3078 3079 3081 3082 3083 3084 3085 3086 3086 3087 3087 3087 3087 3087 3087 3087 3086 3086 3085 3084 3083 3082 3081 3080 3079 3078 3076 3074 3073 3071 3069 3068 3066 3063 3062 3060 3058 3055 3053 3052 3050 3048 3046 3044 3042 3040 3038 3036 3035 3033 3031 3029 3027 3025 3022 3020 3017 3014 3012 3009 3006 3003 3000 2997 2995 2992 2989 2986 2983
3039 3040 3041 3043 3045 3048 3051 3055 3057 3060 3064 3066 3068 3070 3072 3074 3075 3076 3078 3079 3080 3081 3082 3083 3083 3084 3084 3084 3084 3084 3084 3084 3083 3082 3082 3081 3080 3079 3078 3077 3076 3075 3073 3072 3070 3069 3068 3066 3064 3062 3060 3058 3056 3054 3052 3050 3048 3047 3044 3042 3040 3038 3037 3035 3034 3032 3030 3029 3027 3025 3023 3021 3018 3016 3013 3011 3008 3005 3003 3000 2997 2995 2993 2990 2987
3036 3037 3038 3040 3043 3046 3049 3052 3055 3058 3061 3063 3065 3067 3069 3071 3072 3074 3075 3076 3077 3078 3079 3080 3080 3081 3081 3081 3081 3081 3081 3081 3080 3080 3079 3078 3077 3077 3075 3074 3073 3072 3071 3069 3068 3067 3065 3064 3062 3060 3058 3056 3054 3052 3051 3049 3047 3045 3043 3041 3039 3037 3035 3033 3032 3031 3029 3028 3026 3025 3023 3021 3019 3017 3015 3012 3010 3007 3004 3002 2999 2997 2995 2993 2991
3033 3034 3036 3038 3040 3043 3047 3050 3053 3056 3058 3060 3063 3065 3067 3068 3070 3071 3072 3073 3074 3075 3076 3077 3077 3077 3078 3078 3078 3078 3078 3078 3077 3077 3076 3075 3075 3074 3073 3071 3070 3069 3068 3067 3066 3064 3063 3061 3059 3058 3056 3055 3053 3051 3049 3047 3045 3043 3041 3039 3037 3035 3033 3031 3030 3029 3028 3027 3026 3024 3023 3021 3019 3017 3015 3013 3011 3009 3006 3004 3001 2999 2997 2995 2993
3031 3032 3034 3036 3038 3041 3044 3048 3051 3053 3055 3058 3060 3062 3064 3065 3067 3068 3069 3070 3071 3072 3073 3073 3074 3074 3074 3075 3075 3075 3075 3074 3074 3074 3073 3072 3072 3071 3070 3069 3068 3066 3065 3064 3063 3061 3060 3058 3056 3055 3054 3052 3051 3049 3048 3046 3044 3042 3040 3038 3035 3033 3031 3030 3028 3028 3027 3026 3024 3023 3022 3020 3019 3017 3016 3014 3012 3010 3008 3005 3003 3001 2999 2996 2995
3029 3030 3032 3035 3037 3040 3042 3045 3048 3051 3053 3055 3058 3060 3061 3062 3064 3065 3066 3067 3068 3069 3070 3070 3070 3071 3071 3071 3071 3071 3071 3071 3071 3070 3070 3069 3068 3067 3066 3065 3064 3063 3062 3061 3060 3058 3057 3055 3054 3052 3051 3049 3048 3047 3045 3044 3042 3040 3038 3036 3034 3032 3031 3029 3027 3026 3025 3024 3023 3021 3020 3019 3017 3016 3015 3014 3012 3010 3009 3006 3004 3002 3000 2998 2996
3027 3029 3031 3033 3035 3038 3041 3043 3046 3049 3051 3053 3055 3056 3058 3059 3060 3062 3063 3064 3065 3066 3066 3067 3067 3067 3067 3067 3068 3067 3067 3067 3067 3067 3066 3066 3065 3064 3063 3062 3061 3060 3059 3058 3056 3055 3054 3052 3051 3049 3048 3046 3045 3044 3043 3041 3040 3038 3036 3035 3033 3032 3030 3028 3027 3025 3024 3022 3021 3020 3018 3017 3015 3014 3013 3012 3011 3010 3009 3007 3005 3003 3001 2999 2997
3025 3027 3029 3031 3034 3037 3039 3042 3044 3047 3049 3051 3052 3053 3055 3056 3057 3058 3060 3060 3061 3062 3063 3063 3063 3063 3064 3064 3064 3064 3064 3064 3063 3063 3062 3062 3061 3060 3059 3058 3057 3056 3055 3054 3053 3051 3050 3049 3048 3046 3045 3044 3042 3041 3040 3039 3038 3037 3035 3034 3033 3031 3029 3027 3026 3024 3023 3021 3020 3018 3017 3015 3013 3012 3011 3010 3010 3009 3008 3006 3005 3003 3001 3000 2998
3024 3026 3028 3030 3032 3035 3037 3040 3042 3044 3046 3048 3050 3051 3052 3053 3054 3055 3056 3057 3058 3058 3059 3059 3059 3060 3060 3060 3060 3060 3060 3060 3060 3059 3059 3058 3057 3056 3055 3054 3054 3052 3051 3050 3049 3048 3047 3045 3044 3043 3042 3041 3040 3039 3038 3037 3036 3035 3034 3033 3031 3030 3028 3026 3025 3023 3022 3020 3018 3017 3015 3014 3012 3010 3009 3008 3007 3007 3006 3005 3004 3003 3001 3000 2998